{"data":{"norad_id":68124,"epoch":"2026-05-25T04:00:03.998880Z","epoch_age_seconds":60350,"freshness":"FRESH","line1":"1 68124U 26044Z   26145.16671295 -.02390266  00000+0 -76380-1 0  9996","line2":"2 68124  97.2832 108.7771 0002315 105.2085  75.1139 15.36182889  5942","mean_motion":15.36182889,"eccentricity":0.0002315,"inclination_deg":97.2832,"raan_deg":108.7771,"arg_perigee_deg":105.2085,"mean_anomaly_deg":75.1139,"bstar":-0.07638,"rev_number":594,"period_min":93.73883867027,"perigee_km":455.82681519796,"apogee_km":458.991673109,"semimajor_km":6835.5462441535,"source":"CELESTRAK","updated_at":"2026-05-25T13:38:21.845817Z"}}